Etusivu
METAR-TAF:

METAR-TAF

Lentoasemat :

Red Wing Regional Airport

Red Wing, Minnesota, Yhdysvallat

Leveyspiiri: 44-35-25N, Pituuspiiri: 092-29-10W, korkeus merenpinnasta: 239 m

Tämänhetkinen sää

Tämä raportti tehtiin 27 minuuttia sitten, kello 10.16 UTC
Tuuli 5 kn pohjoisesta
Lämpötila -7°C
Kosteus 86%
Ilmanpaine 1020 hPa
Näkyvyys: 16.1 km
Pilvistä 1300 ft:n korkeudessa

METAR: KRGK 281016Z AUTO 35005KT 10SM OVC013 M07/M09 A3013 RMK AO2

Aika: 04:43 (10:43 UTC)


TAF: puuttuu

Säähavainnot ja -ennusteet yli 4000 lentoasemalta (METAR- ja TAF-raportit).

Käytössä olevat sääasemat on merkitty karttaan keltaisilla ja punaisilla pisteillä.

Aseta hiiri pisteen päälle nähdäksesi sääaseman nimen.

Klikkaa sitten nähdäksesi säähavainnot ja -ennusteet.

Kartan vaihtaminen: klikkaa mustalla rastilla varustettuja vihreitä pisteitä, niin voit zoomata sisään; viivalla varustettua vihreää pistettä, niin voit zoomata ulos tai vihreitä nuolia, niin pääset viereisille kartoille.


METAR-TAF: